Location: ???? ????
(41.4149°N, 22.8816°E)
Time: 14:26:31
(UTC+00:00)

Cosmos 2082 Rocket - Pass Details

Date: 14 July 2020
Orbit: 833 x 853 km, 71.0° (Epoch: 04 August)

Event Time Altitude Azimuth Distance (km) Brightness Sun altitude
Exits shadow 00:40:45 35° 182° (S) 1,336 2.8 -20.5°
Maximum altitude 00:43:07 68° 110° (ESE) 917 2.3 -20.3°
Drops below altitude 10° 00:48:48 10° 29° (NNE) 2,487 5.9 -19.7°
Sets 00:51:16 0° 27° (NNE) 3,425 7.0 -19.4°
